Location: Heisler
(52.6701°N, 112.2239°W)
Time: 13:39:46
(UTC+00:00)

Envisat - Pass Details

Date: 02 December 2021
Orbit: 764 x 766 km, 98.2° (Epoch: 26 January)

Event Time Altitude Azimuth Distance (km) Brightness Sun altitude
Rises 11:45:20 0° 21° (NNE) 3,248 6.6 -31.4°
Reaches altitude 10° 11:47:55 10° 32° (NNE) 2,316 5.9 -31.0°
Maximum altitude 11:52:24 30° 94° (E) 1,340 4.8 -30.3°
Drops below altitude 10° 11:56:52 10° 155° (SSE) 2,300 5.7 -29.6°
Sets 11:59:25 0° 166° (SSE) 3,221 6.4 -29.2°
